Location: ???????????????
(48.2982°N, 37.7716°E)
Time: 09:14:08
(UTC+00:00)

Daily predictions for brighter satellites

Satellite Brightness Start Highest point End
(mag) Time Altitude Azimuth Time Altitude Azimuth Time Altitude Azimuth
NOSS 2-2 (E) 4.5 13:59:58 10° NW 14:05:11 90° NE 14:12:36 10° SE
NOSS 2-2 (D) 4.3 14:00:36 10° NW 14:05:40 78° NE 14:12:51 10° SE
Cosmos 2026 Rocket 4.1 14:01:52 10° N 14:07:51 51° ENE 14:13:43 10° SSE
Meteor PRIRODA 3.7 14:06:23 10° SSE 14:09:56 57° ENE 14:13:30 10° N
Cosmos 1634 Rocket 4.4 14:04:28 10° SSE 14:10:23 44° E 14:16:19 10° NNE
Lacrosse 5 rocket 1.6 14:07:26 10° NW 14:11:10 45° NNE 14:15:05 10° ESE
ERBS 4.1 14:10:32 10° NW 14:12:49 18° N 14:15:07 10° NE
Cosmos 1666 Rocket 4.3 14:12:15 10° N 14:16:13 30° ENE 14:20:06 10° SE
Cosmos 2369 3.8 14:12:13 10° NNW 14:18:00 88° ENE 14:23:44 10° SSE
H-2A R/B 2.8 14:14:32 10° ESE 14:18:48 28° ENE 14:23:01 10° N
SL-16 R/B 3.0 14:18:25 10° NNW 14:23:19 29° NE 14:28:12 10° ESE
CZ-2C R/B 2.9 14:20:19 10° SSE 14:25:09 89° W 14:29:56 10° NNW
Cosmos 2082 Rocket 2.4 14:21:17 10° S 14:26:49 57° ESE 14:32:23 10° NE
Okean O Rocket 3.0 14:24:02 10° ESE 14:27:00 18° ENE 14:29:59 10° NNE
Cosmos 1812 3.5 14:23:42 10° SSE 14:27:06 30° E 14:30:30 10° NNE
Cosmos 2221 4.0 14:23:53 10° SW 14:27:52 37° WNW 14:31:54 10° N
PSLV R/B 4.5 14:24:44 10° SE 14:28:00 30° ENE 14:31:20 10° N
ATLAS CENTAUR R/B 3.9 14:26:16 10° NW 14:28:12 12° NNW 14:30:12 10° N
ARGOS 4.2 14:24:54 10° ESE 14:29:07 24° ENE 14:33:20 10° N
USA 308 3.4 14:25:23 10° WNW 14:29:27 42° N 14:33:16 11° E
Cosmos 540 Rocket 3.4 14:24:45 10° SSW 14:29:51 87° ESE 14:35:00 10° NNE
FengYun 1-2 T 4.2 14:26:08 10° SSE 14:31:42 77° ENE 14:37:14 10° NNW
ATLAS CENTAUR R/B 3.0 14:21:33 10° SW 14:32:00 89° NW 14:35:54 12° NE
Cosmos 1500 Rocket 4.5 14:27:43 10° NNW 14:32:02 53° W 14:36:18 10° S
COSMOS 2455 2.9 14:26:06 10° SSW 14:32:06 76° ESE 14:38:10 10° NE
Sich 1 2.9 14:27:53 10° N 14:32:12 75° ENE 14:36:32 10° SSE
NOAA 6 4.0 14:32:34 10° SSE 14:37:40 70° ENE 14:42:46 10° N
SMAP 3.0 14:33:34 10° SSE 14:38:11 70° ENE 14:42:50 10° N
Cosmos 1833 Rocket 3.2 14:34:50 10° SW 14:40:23 59° WNW 14:45:59 10° NNE
Cosmos 2278 3.7 14:34:46 10° NNW 14:40:31 77° ENE 14:46:12 10° SSE
Cosmos 2333 Rocket 3.8 14:38:51 10° N 14:42:09 15° NNE 14:43:59 13° NE
deb Chang Zheng 4 4.5 14:39:57 10° ESE 14:43:32 26° ENE 14:47:09 10° N
Cosmos 1805 Rocket 4.0 14:40:13 10° NNW 14:44:32 65° W 14:48:49 10° S
CZ-4B DEB 4.2 14:39:55 10° SSE 14:45:20 64° ENE 14:50:46 10° N
Cosmos 1933 3.8 14:42:05 10° SSW 14:46:05 63° WNW 14:50:05 10° N
CZ-2C R/B 3.5 14:44:12 10° NE 14:48:36 27° E 14:52:58 10° SSE
Cosmos 2219 Rocket 3.9 14:47:36 10° N 14:50:32 14° NNE 14:51:36 13° NE
Meteor 1-14 Rocket 4.3 14:46:40 10° N 14:52:33 72° ENE 14:58:29 10° SSE
USA 305 3.1 14:49:49 10° WNW 14:53:59 51° NNE 14:56:51 19° E
Meteor 2-16 Rocket 4.4 14:49:05 10° N 14:55:12 68° ENE 15:01:18 10° SSE
Cosmos 1356 Rocket 4.4 14:52:52 10° N 14:56:27 26° ENE 15:00:03 10° SE
CZ-4B R/B 4.1 14:52:56 10° S 14:56:42 43° W 15:00:18 10° NNW
Cosmos 44 Rocket 3.2 14:53:06 10° NW 14:58:04 79° NE 15:02:51 10° SE
COSMOS 2406 3.8 14:54:02 10° SW 14:59:40 56° WNW 15:05:18 10° NNE
Cosmos 1500 3.8 14:56:19 10° NNW 15:00:01 58° W 15:03:40 10° S
MOS 1-B Rocket 4.3 14:55:11 10° NNE 15:01:05 51° E 15:07:50 10° S
Cosmos 1814 Rocket 3.9 14:57:06 10° SSW 15:02:18 79° ESE 15:07:24 10° NNE
Cosmos 1515 Rocket 4.4 15:00:24 10° SSE 15:04:14 29° E 15:06:04 21° NE
Cosmos 921 Rocket 3.4 15:03:01 10° S 15:06:57 40° ESE 15:09:08 23° NE
USA 267 3.3 15:03:05 18° ENE 15:08:13 77° SE 15:14:46 10° SW
Cosmos 1570 Rocket 3.9 15:03:44 10° SSW 15:08:57 78° ESE 15:13:48 12° NNE
CZ-4B R/B 3.1 15:06:17 10° SSE 15:11:32 58° ENE 15:16:45 10° N
Cosmos 2298 Rocket 4.0 15:09:28 10° NNW 15:14:48 67° ENE 15:20:06 10° SSE
MOS 1-B 4.3 15:09:18 10° SSE 15:15:04 80° ENE 15:20:53 10° NNW
Cosmos 371 Rocket 4.5 15:13:05 10° N 15:16:25 23° NE 15:16:25 23° NE
Meteor 1-27 Rocket 4.3 15:14:40 10° SSE 15:19:30 32° E 15:21:31 25° NE
CZ-2D R/B 3.3 15:16:37 10° S 15:20:26 79° WSW 15:24:16 10° NNW
Meteor 2-6 Rocket 4.1 15:16:50 10° S 15:22:31 74° E 15:28:04 10° NNE
COSMO-SKYMED 1 2.7 15:21:57 25° NE 15:24:14 49° E 15:28:26 10° S
Cosmos 2360 Rocket 2.7 15:19:17 10° NNW 15:24:32 36° NE 15:26:27 29° E
Cosmos 1633 Rocket 3.3 15:20:21 10° NNW 15:24:43 69° W 15:29:05 10° S
Cosmos 1151 Rocket 3.3 15:20:34 10° SSW 15:24:53 71° W 15:29:17 10° N
APEX 3.2 15:22:11 10° S 15:25:42 43° ESE 15:25:44 43° ESE
PAYLOAD B 4.4 15:20:34 10° SSE 15:26:11 80° WSW 15:31:49 10° NNW
USA 306 2.8 15:22:08 10° WNW 15:26:22 68° NNE 15:27:50 38° E
SJ-11-01 4.2 15:22:53 10° SSE 15:27:34 63° ENE 15:32:15 10° N
Cosmos 2237 4.4 15:22:05 10° NNW 15:27:39 49° NE 15:31:35 19° ESE
Landsat 5 4.0 15:28:30 35° ESE 15:28:30 35° ESE 15:31:46 10° SSE
Cosmos 1666 3.6 15:25:08 10° NNW 15:28:44 49° W 15:32:18 10° S
Cosmos 1900 4.3 15:25:13 10° SW 15:30:06 83° NW 15:32:48 27° NNE
Cosmos 1818 4.0 15:26:09 10° NW 15:31:34 63° WSW 15:36:56 10° SSE
YAOGAN 1 4.1 15:34:12 21° NNE 15:34:12 21° NNE 15:35:56 10° N
Cosmos 2279 Rocket 4.1 15:26:59 10° SSW 15:33:11 76° W 15:39:25 10° N
ISS -0.6 15:32:54 10° WSW 15:34:31 13° SW 15:36:08 10° SSW
Meteor 2-15 4.3 15:29:57 10° S 15:36:03 75° E 15:42:08 10° NNE
Cosmos 2266 Rocket 3.9 15:29:53 10° N 15:36:18 74° E 15:42:43 10° SSE
CZ-4C R/B 3.9 15:30:53 10° NW 15:37:57 52° WSW 15:46:04 10° SSE
NOSS 3-4 (A) 4.4 15:33:26 10° NW 15:39:30 36° NNE 15:41:24 31° ENE
NOSS 3-4 (C) 4.4 15:33:32 10° NW 15:39:37 35° NNE 15:41:29 31° ENE
ATLAS 2AS CENTAUR R/B 3.9 15:35:41 10° NW 15:41:54 27° NNE 15:43:52 24° NE
USA 234 3.5 15:36:03 10° SE 15:42:35 71° SW 15:49:07 10° WNW
CZ-2C R/B 3.7 15:41:34 10° SSW 15:43:37 13° S 15:45:03 11° SSE
SL-08 RB Rocket 3.6 15:42:14 10° SSE 15:46:49 66° ENE 15:51:22 10° N
USA 307 2.7 15:42:39 10° WNW 15:46:56 80° NNE 15:47:30 64° E
Cosmos 2322 Rocket 2.1 15:41:37 10° NNW 15:47:21 77° ENE 15:52:59 10° SSE
COSMOS 2428 4.1 15:43:30 10° N 15:46:42 21° NNE 15:46:42 21° NNE
Cosmos 2208 Rocket 4.4 15:42:52 10° SSW 15:48:15 65° WNW 15:52:19 18° NNE
SKYMED 3 4.4 15:46:21 31° NNE 15:48:24 86° E 15:52:45 10° SSW
ERBS 4.4 15:46:58 10° NW 15:48:11 17° NNW 15:48:11 17° NNW
Lacrosse 5 rocket 2.6 15:46:33 10° WNW 15:50:14 38° SW 15:53:16 15° SSE
Cosmos 2150 Rocket 4.2 15:45:12 10° NNW 15:50:23 69° WSW 15:55:35 10° S
NOSS 3-3 (A) 4.3 15:45:25 10° S 15:50:36 38° ESE 15:50:53 38° ESE
NOSS 3-3 (C) 4.3 15:45:32 10° S 15:50:43 38° ESE 15:50:58 38° ESE
Cosmos 1933 Rocket 3.4 15:47:26 10° N 15:51:49 85° E 15:56:09 10° S
Cosmos 1328 Rocket 4.4 15:50:30 10° SSW 15:54:49 50° WNW 15:58:56 11° N
Cosmos 1125 Rocket 3.8 15:51:35 10° NNW 15:56:49 66° WSW 16:02:02 10° S
Cosmos 1867 3.6 15:51:58 10° SSW 15:57:16 55° ESE 15:57:45 53° E
Cosmos 1470 Rocket 4.3 15:53:25 10° NNW 15:57:48 54° W 16:02:10 10° S
H-2A R/B 3.1 15:53:10 10° S 15:58:03 45° W 16:02:51 10° NNW
Meteor 1-10 Rocket 4.3 15:53:39 10° SSW 15:59:24 79° WNW 16:04:40 12° N
Meteor 1-11 Rocket 3.8 15:53:59 10° NNW 15:59:39 82° W 16:05:25 10° S
GEOS 3 Rocket 3.9 16:00:48 48° NE 16:00:48 48° NE 16:05:45 10° NNW
Cosmos 1544 3.8 15:57:21 10° NNW 16:00:53 53° W 16:04:25 10° S
Okean O Rocket 2.0 15:58:29 10° S 16:02:54 63° WSW 16:07:21 10° NNW
USA 32 3.9 15:58:03 10° S 16:03:16 78° E 16:05:46 32° NNE
SL-16 R/B 2.7 16:02:14 10° NW 16:07:49 60° WSW 16:13:23 10° S
X-37B 3.1 16:05:44 10° SW 16:06:35 16° SW 16:06:35 16° SW
ARGOS 3.6 16:03:38 10° S 16:08:59 61° W 16:14:20 10° NNW
ATLAS CENTAUR R/B 4.1 16:07:35 10° N 16:08:07 11° N 16:08:07 11° N
Cosmos 2237 Rocket 4.3 16:06:18 10° N 16:07:15 12° N 16:07:15 12° N
USA 308 3.0 16:05:21 10° WNW 16:09:19 73° W 16:09:19 73° W
Cosmos 2082 Rocket 3.8 16:06:19 10° WSW 16:11:16 30° NW 16:15:05 15° N
SKYMED 2 4.2 16:10:34 32° N 16:12:19 55° WNW 16:16:33 10° SSW
Cosmos 1241 Rocket 4.3 16:10:27 10° SSW 16:16:45 67° ESE 16:17:20 64° E
COSMOS 2455 4.4 16:13:28 10° W 16:18:39 29° NW 16:21:45 19° N
Feng Yun 1-1 Rocket 4.5 16:16:46 10° S 16:22:40 74° WSW 16:28:31 10° NNW
Cosmos 2333 Rocket 2.9 16:22:06 10° NNW 16:26:02 40° N 16:26:02 40° N
CZ-2C R/B 3.5 16:25:19 17° N 16:29:07 45° WNW 16:34:00 10° SW
Aureole 3 Rocket 3.9 16:26:50 10° SSW 16:31:29 69° WNW 16:38:08 10° N
BREEZE-M DEB (TANK) 4.1 16:09:47 10° SW 16:33:16 69° SSE 16:34:34 59° E
USA 305 4.1 16:29:46 10° WNW 16:32:51 40° W 16:32:51 40° W
Cosmos 2219 Rocket 3.4 16:30:21 10° NNW 16:33:21 30° N 16:33:21 30° N
Nadezhda 2 Rocket 4.4 16:33:10 10° N 16:39:31 85° NE 16:39:31 85° NE
USA 267 3.6 16:50:26 50° N 16:51:05 52° NNW 16:57:22 10° W
ATLAS CENTAUR R/B 4.5 16:59:09 10° WNW 17:01:31 18° NW 17:01:31 18° NW
Cosmos 2360 Rocket 3.2 17:03:17 10° NW 17:08:18 43° W 17:08:18 43° W
NOSS 3-4 (A) 4.5 17:24:10 10° NW 17:28:51 48° NW 17:28:51 48° NW
NOSS 3-4 (C) 4.5 17:24:17 10° NW 17:28:56 48° NW 17:28:56 48° NW
ATLAS 2AS CENTAUR R/B 4.0 17:27:16 10° NW 17:31:18 33° NNW 17:31:18 33° NNW
